Regional Weather Roundup
Issued by NWS

Home | Current Version | Previous Version | Graphics & Text | Print | Product List | Glossary On
Versions: 1 2 3 4 5 6 7 8 9 10 11 12 13 14 15 16 17 18 19 20 21 22 23 24 25 26 27 28 29 30 31 32 33 34 35 36 37 38 39 40 41 42 43 44 45 46 47 48 49 50
000
ASUS45 KCYS 032310
RWRWY

WYOMING REGIONAL WEATHER ROUNDUP
NATIONAL WEATHER SERVICE CHEYENNE WY
500 PM MDT SUN MAY 03 2015

NOTE:  "FAIR" INDICATES FEW OR NO CLOUDS BELOW 12,000 FEET
WITH NO SIGNIFICANT WEATHER AND/OR OBSTRUCTIONS TO VISIBILITY.

WYZ001-040000-
YELLOWSTONE NATIONAL PARK

CITY           SKY/WX    TMP DP  RH WIND       PRES   REMARKS
LK YELLOWSTONE   N/A     54  26  34 VRB6      30.06R
W YELLOWSTONE  NOT AVBL

$$
WYZ002>013-054>058-071-098>099-040000-
NORTHERN WYOMING

CITY           SKY/WX    TMP DP  RH WIND       PRES   REMARKS
JACKSON        PTSUNNY   63  28  27 CALM      29.95
CODY           FAIR      59  36  41 NE8       29.97S
GREYBULL       PTSUNNY   69  33  26 NW12G20   29.90S
WORLAND        CLOUDY    67  33  28 NW13      29.92R
SHERIDAN       CLOUDY    63  40  42 E10       29.97S
BUFFALO        CLOUDY    61  40  45 E6        30.00R
GILLETTE       FAIR      66  38  35 E10       29.97F
HULETT         FAIR      63  34  34 E14G20    30.03S
NEWCASTLE      FAIR      64  34  32 S12       29.98R

$$
WYZ014>020-022>026-101>103-040000-
CENTRAL WYOMING

CITY           SKY/WX    TMP DP  RH WIND       PRES   REMARKS
BIG PINEY      PTSUNNY   57  39  51 NE12      30.04F
PINEDALE       MOCLDY    52  39  62 N9G18     30.05F
DUBOIS         CLOUDY    55  28  35 SW22G29   30.00S
LANDER         LGT RAIN  52  43  71 SW17      29.99R
RIVERTON       PTSUNNY   60  37  42 SW26G39   29.95R
CASPER         FAIR      67  35  30 E7        29.95S
DOUGLAS        FAIR      66  39  37 S13       29.96F

$$
WYZ021-027>030-104>119-040000-
SOUTHERN WYOMING

CITY           SKY/WX    TMP DP  RH WIND       PRES   REMARKS
EVANSTON       FAIR      61  32  33 SW17      29.99F
KEMMERER       RAIN      50  39  66 E17G24    30.01F
FORT BRIDGER   CLOUDY    55  41  58 S5        30.04R
ROCK SPRINGS   FAIR      56  37  49 E9        30.02F
DIXON          MOCLDY    60  35  39 NW25G33   30.04R THUNDER
RAWLINS        TSTM      56  35  45 MISG      30.05R
SARATOGA       TSTM      59  36  41 E3        30.02R
LARAMIE        CLOUDY    54  36  50 SE15      30.05R THUNDER
CHEYENNE       FAIR      54  44  69 E9        30.05F
TORRINGTON     PTSUNNY   66  39  37 E14       29.97R
PINE BLUFFS    TSTM      55  46  71 NW22G33   30.05R

$$



USA.gov is the U.S. government's official web portal to all federal, state and local government web resources and services.